SCP
0 0 0 -0 -0 -0 -0 -0 -0 -0 -0 -0 -0 -0 -0 0 0 -0 0 0 0 0 0 0 0 0 0 0 0 -0 0 0 -0 -0 0 0 0 -0 -0 -0 -0 -0 -0 -0 -0
0 0 0 -0 -0 -0 -0 -0 -0 -0 -0 -0 -0 -0 0 0 -0 0 0 0 0 0 0 0 0 0 0 0 0 -0 -0 0 0 -0 -0 -0 -0 -0 0 -0 -0 -0 -0 0 -0
0 0 0 -0 -0 -0 -0 -0 -0 -0 -0 -0 -0 0 0 0 0 0 0 0 0 0 0 0 0 0 0 0 0 -0 -0 0 0 0 -0 0 -0 0 -0 -0 -0 -0 -0 -0 -0
0 0 0 0 0 -0 -0 -0 -0 -0 -0 -0 -0 0 0 0 0 0 0 0 0 0 0 0 0 0 0 0 0 -0 0 -0 -0 0 -0 0 0 0 0 -0 -0 -0 0 0 -0
0 0 0 0 0 0 -0 -0 -0 -0 -0 -0 0 0 0 0 0 0 0 0 0 0 0 0 0 0 0 0 0 0 0 0 -0 0 0 0 0 0 0 -0 -0 -0 -0 0 0
0 0 0 0 -0 -0 -0 -0 -0 -0 -0 -0 0 -0 0 0 0 0 0 0 0 0 0 0 0 0 0 0 0 -0 0 0 0 0 0 -0 0 0 0 -0 -0 0 0 0 0
0 0 0 0 -0 -0 -0 -0 -0 -0 0 0 0 -0 0 0 0 0 0 0 0 0 0 0 0 0 -0 0 0 0 0 0 0 0 0 -0 0 -0 -0 -0 0 0 0 0 0
0 0 0 -0 -0 -0 -0 -0 -0 -0 0 0 -0 0 0 0 0 0 0 0 0 0 0 0 0 -0 -0 0 0 0 0 0 0 0 0 -0 -0 -0 -0 -0 0 0 0 0 0
0 0 0 -0 -0 -0 -0 -0 -0 -0 0 0 0 0 0 0 0 0 0 0 0 0 0 0 0 -0 0 0 0 0 0 0 0 0 0 -0 0 -0 0 0 0 0 0 0 0
0 0 0 0 -0 -0 -0 -0 -0 0 0 -0 0 0 0 0 0 -0 0 0 0 0 0 0 0 0 0 0 0 0 0 0 0 -0 -0 0 -0 0 -0 0 0 0 0 0 0
0 0 0 0 -0 -0 0 0 0 0 0 0 0 0 0 -0 -0 0 0 0 0 0 0 0 0 0 0 0 -0 0 0 0 0 -0 -0 -0 0 0 -0 0 0 0 0 0 0
0 0 0 0 0 -0 0 0 0 0 0 0 0 0 0 0 0 0 0 0 0 0 0 0 0 0 0 0 0 0 0 0 0 0 0 0 -0 0 0 -0 0 0 0 0 0
0 0 0 0 0 0 0 0 0 0 0 0 0 0 0 0 0 0 0 0 0 0 0 0 0 0 0 0 0 0 0 0 -0 -0 0 0 -0 0 0 0 0 0 0 0 0
0 0 0 0 0 0 0 0 0 -0 0 0 0 0 0 0 0 0 0 0 0 0 0 0 0 0 0 0 -0 -0 0 0 -0 0 0 -0 0 0 1 1 0 0 0 0 0
0 0 0 0 0 0 0 0 0 0 0 -0 0 0 0 0 0 -0 0 0 0 0 0 0 0 0 0 0 0 -0 -0 0 0 0 0 0 0 0 1 0 0 0 -0 -0 0
0 0 0 0 0 0 0 0 0 0 0 0 0 0 0 0 0 0 0 0 0 0 0 0 0 0 -0 0 0 0 0 0 0 0 -0 0 0 0 0 1 0 0 -0 0 0
0 0 0 0 0 0 0 0 0 0 0 0 0 0 0 0 0 -0 0 0 0 0 0 0 0 0 0 0 0 0 0 0 -0 -0 -0 0 0 0 0 0 0 -0 -0 0 0
0 0 0 0 0 0 0 0 0 0 -0 0 -0 0 -0 0 -0 -0 0 0 0 0 0 0 0 0 0 0 0 0 0 0 0 0 0 0 0 0 0 0 0 -0 0 0 0
0 0 0 0 0 0 0 0 0 0 0 -0 -0 0 0 -0 0 0 0 0 0 0 0 0 0 0 0 0 0 0 -0 0 -0 -0 0 0 0 0 0 0 0 -0 0 0 0
-0 -0 0 0 0 0 0 0 -0 0 0 0 0 0 -0 0 0 0 0 0 0 0 0 0 0 0 0 0 0 0 -0 0 0 0 0 0 0 -0 0 0 0 0 0 0 0
0 0 0 0 0 0 0 -0 -0 0 0 0 0 0 0 0 -0 0 0 0 0 0 0 0 0 0 0 0 0 0 -0 -0 0 0 0 0 0 -0 0 0 0 0 0 0 0
0 0 0 0 0 0 0 0 -0 0 0 0 0 0 0 0 0 -0 0 -0 -0 0 0 0 0 0 0 0 -0 0 0 0 0 0 0 0 0 0 0 0 -0 0 0 0 0
0 0 0 0 0 0 0 0 0 0 0 0 0 0 0 0 0 0 0 0 0 -0 0 0 0 0 0 0 0 0 0 0 0 0 0 0 -0 0 0 0 0 0 0 0 0
0 0 0 0 0 0 0 0 0 0 0 0 0 0 0 0 0 0 0 0 0 0 0 0 0 0 0 0 0 0 0 0 0 0 0 0 0 0 0 0 0 0 0 0 0
0 0 0 0 0 0 0 0 0 0 0 0 0 0 0 0 0 0 0 0 0 0 0 0 0 0 -0 -0 0 0 0 0 0 0 0 0 0 0 0 0 0 0 0 0 0
0 0 0 0 0 0 0 0 0 0 0 0 0 0 0 0 0 0 0 0 0 0 0 0 0 0 -0 0 0 0 -0 0 0 0 0 0 0 0 0 0 0 0 0 0 0
0 0 0 0 0 0 0 0 0 0 0 0 0 0 0 0 0 0 0 0 0 1 0 0 0 0 -0 0 0 0 0 0 0 0 0 0 0 0 0 0 0 0 0 0 0
Wind_Speed_500mb
40 43 42 39 40 39 39 42 44 44 45 48 51 50 39 28 23 23 27 18 24 9 16 13 20 16 3 25 41 44 7 6 13 17 25 52 30 57 48 53 30 35 64 56 51
39 43 46 41 42 41 39 43 44 45 44 46 50 46 36 31 29 31 15 10 19 20 21 20 15 10 20 14 8 6 9 18 3 33 36 51 52 39 27 44 51 59 56 54 47
38 42 45 45 44 42 40 41 43 44 44 45 49 41 33 31 20 14 19 11 23 19 19 13 16 27 36 29 17 6 13 21 29 49 56 36 43 28 48 23 49 54 52 55 54
35 40 45 45 46 42 41 40 42 42 42 42 46 35 31 23 4 8 15 21 21 22 29 25 33 41 11 5 16 9 15 34 36 45 61 29 34 18 36 40 53 49 51 58 56
35 36 41 46 45 44 40 40 40 40 41 42 42 30 30 12 23 20 16 24 23 30 35 23 26 36 13 5 4 13 12 32 43 47 50 54 39 25 41 48 47 47 39 47 57
36 39 39 43 43 44 41 40 37 36 36 38 37 27 22 14 8 8 12 24 26 39 35 26 24 30 22 22 8 33 40 26 45 31 57 43 36 29 41 48 46 43 40 54 58
37 40 41 41 43 41 40 40 36 35 33 34 28 24 24 31 15 9 14 22 30 44 23 20 26 13 25 19 12 17 12 24 31 31 15 41 16 20 47 46 44 44 53 51 45
38 40 42 42 39 39 39 39 33 32 30 29 21 19 21 8 23 16 11 17 28 39 26 23 29 20 12 23 14 12 15 11 12 23 17 27 14 29 50 50 48 44 52 48 40
38 39 41 44 40 37 38 33 29 26 25 22 14 14 22 16 25 28 21 19 19 25 28 25 20 10 17 8 2 19 11 12 19 9 16 6 7 29 52 53 51 49 55 52 52
41 42 40 39 38 37 32 28 18 21 19 17 17 12 27 34 26 35 25 28 26 23 25 12 1 2 9 2 12 10 10 10 11 21 10 30 32 14 53 54 56 59 60 59 63
41 43 41 36 31 29 23 28 14 4 19 23 14 22 28 21 31 31 29 33 30 27 10 21 5 13 23 17 14 22 20 20 15 27 3 24 40 23 57 47 50 58 65 66 68
41 40 40 34 26 14 18 18 14 22 26 41 51 56 57 16 22 28 36 35 25 12 19 8 21 18 19 18 19 16 13 19 30 26 24 42 41 28 52 65 61 63 66 68 74
37 37 37 29 20 8 16 13 20 31 12 36 47 51 50 30 29 37 44 44 19 18 19 20 13 25 25 25 26 19 16 21 24 36 25 11 31 34 47 39 37 50 61 85 91
34 33 32 29 9 13 2 11 21 27 7 15 24 48 52 30 15 43 49 42 14 28 20 18 33 30 28 28 26 26 18 25 24 13 19 38 13 6 39 33 27 44 67 75 74
33 31 25 24 26 17 10 17 29 12 7 15 34 24 48 43 19 41 58 56 26 22 14 16 21 29 32 39 36 31 23 8 10 11 7 21 10 13 36 20 26 39 65 75 75
34 31 29 14 31 11 20 27 18 1 13 10 24 21 30 46 52 24 58 57 39 21 15 27 45 23 30 12 4 11 13 14 12 3 5 10 11 8 3 14 10 23 63 68 71
35 31 33 28 25 9 12 23 2 9 17 28 29 27 36 21 34 26 30 29 22 10 13 16 26 16 11 6 9 7 10 8 11 6 11 18 9 14 21 39 31 41 38 70 74
38 36 34 34 22 11 8 5 10 19 28 9 28 32 30 28 31 31 30 22 24 21 7 12 16 15 10 13 20 16 13 9 13 8 11 4 13 8 13 52 67 54 54 68 68
36 35 41 23 17 13 4 5 12 15 13 33 29 26 27 30 18 27 27 31 31 32 16 9 18 20 16 9 18 13 18 18 8 16 4 11 11 11 20 25 48 68 55 62 64
31 31 37 14 23 29 10 12 13 24 41 26 7 21 27 31 29 18 28 32 28 38 31 15 9 15 21 26 21 20 9 5 4 10 13 9 9 10 8 9 24 29 57 61 62
23 11 13 30 21 31 12 12 20 51 50 16 25 13 9 12 32 24 24 23 38 34 35 18 11 31 7 8 16 6 15 10 4 10 11 1 4 14 21 9 9 34 56 68 68
7 6 14 29 10 14 17 13 17 41 64 12 10 13 14 30 9 34 22 26 63 49 33 20 13 13 23 22 27 19 18 13 8 14 5 7 12 12 19 53 44 59 74 72 64
8 21 15 14 8 15 21 34 45 43 44 11 13 15 18 16 10 17 19 30 37 41 25 19 8 6 19 14 10 17 15 9 8 6 10 10 8 2 21 40 63 63 72 69 77
8 6 14 18 28 13 15 24 31 49 42 37 15 24 15 17 14 11 10 14 31 30 40 44 12 14 16 15 5 4 11 14 15 7 8 10 13 9 12 32 45 56 75 78 73
8 5 4 3 11 17 16 22 37 34 36 22 17 18 17 11 16 14 15 22 13 19 8 16 13 14 18 16 23 19 23 27 16 17 13 12 18 16 22 20 46 67 70 71 66
9 10 19 14 29 20 17 22 33 41 29 12 15 20 20 17 9 7 17 14 9 11 18 10 11 12 11 13 21 27 26 7 7 17 12 23 14 15 34 38 49 60 59 61 67
12 20 12 13 11 11 9 25 28 34 39 39 26 22 23 16 32 35 19 34 21 8 8 14 12 8 10 13 20 18 14 16 11 6 6 10 16 15 17 26 49 56 65 66 66
Wind_Direction_500mb
302 304 308 313 315 317 319 321 324 326 328 333 332 333 329 325 304 276 249 219 204 258 229 189 185 173 249 259 253 264 208 312 236 141 120 105 97 79 86 82 109 112 138 144 149
299 302 305 310 311 315 317 318 322 325 327 331 330 331 329 328 307 270 204 207 218 244 220 186 197 205 238 261 248 139 124 182 338 123 126 128 111 110 102 96 99 114 138 148 148
296 300 303 308 309 314 315 316 319 321 326 329 328 329 330 328 315 273 211 194 230 232 202 195 237 225 232 252 208 231 91 17 312 126 121 121 117 125 124 135 141 142 154 154 158
294 298 301 306 308 311 312 313 316 318 322 326 326 326 327 319 330 293 216 213 228 218 191 216 237 248 239 253 198 104 175 200 124 122 118 123 136 98 144 156 150 154 167 167 163
293 296 299 303 307 310 311 309 312 315 319 322 322 321 328 306 266 279 230 219 200 198 190 208 249 250 238 306 200 103 277 194 115 103 107 121 115 119 121 138 148 163 170 161 160
295 297 300 302 306 309 310 307 308 311 313 317 315 310 316 253 245 266 228 207 197 192 187 221 235 254 302 284 211 212 153 142 115 112 108 108 122 127 139 143 150 158 159 140 133
298 297 300 305 307 309 309 303 304 305 308 309 305 300 292 254 241 283 231 212 201 190 188 217 253 286 321 333 180 155 119 77 38 23 118 130 131 146 148 152 161 175 146 139 136
307 303 300 302 309 308 306 304 302 299 302 300 294 292 273 284 216 245 231 187 187 193 219 241 277 273 274 277 280 81 57 21 319 45 355 2 192 154 161 163 176 170 149 146 144
310 307 306 305 308 312 309 308 300 289 296 289 284 277 270 196 201 224 200 202 187 215 231 270 224 250 295 259 336 13 106 50 339 316 19 78 239 176 173 174 178 172 158 158 157
312 312 309 308 309 315 319 316 302 289 275 276 226 290 248 226 224 206 198 201 208 228 245 219 333 238 288 110 189 152 126 66 315 266 306 274 250 219 185 185 180 178 167 166 159
309 312 313 308 307 317 340 10 359 41 328 251 212 248 294 204 206 197 192 202 204 227 206 199 190 204 241 239 248 168 130 173 184 255 331 242 246 245 195 199 185 180 175 170 165
308 310 314 310 305 306 320 350 357 325 295 279 260 262 265 201 162 190 187 197 191 209 215 252 221 232 235 253 255 264 260 216 170 200 189 259 244 221 194 204 190 183 180 170 159
310 312 315 309 297 296 314 325 339 329 287 285 249 239 243 182 200 203 194 207 183 209 224 226 213 228 243 252 260 247 231 262 179 207 209 320 258 208 199 198 209 193 184 168 167
310 313 319 313 260 266 3 14 334 331 298 260 203 227 226 193 224 219 196 202 203 203 220 232 248 219 227 240 254 269 234 234 260 155 205 207 260 253 169 179 203 228 168 162 162
305 309 312 322 284 285 353 360 329 311 310 176 189 187 197 179 176 215 194 203 229 197 185 237 228 236 232 229 234 253 260 235 282 268 28 352 51 336 141 191 191 206 164 162 167
300 304 304 284 279 312 335 331 312 223 248 195 151 161 185 191 220 207 177 202 230 253 251 226 225 234 234 219 202 338 336 348 305 199 326 146 120 252 246 200 212 192 174 161 153
291 294 291 285 260 308 346 340 171 231 286 145 166 166 191 183 209 210 176 196 216 202 252 282 244 256 148 69 7 356 17 336 305 339 227 188 96 45 346 345 326 285 256 155 153
286 288 283 269 265 249 357 313 239 253 246 317 163 175 201 186 214 221 174 191 223 234 218 225 262 239 161 173 194 214 192 201 246 209 240 234 162 178 56 324 300 268 233 151 153
290 290 285 257 213 152 256 255 222 222 312 306 183 173 193 203 201 207 179 198 204 218 206 215 234 257 180 171 163 252 237 212 254 279 327 121 88 200 232 245 279 174 166 141 155
304 304 280 204 175 213 222 242 264 315 310 332 193 167 184 200 200 213 186 196 207 207 213 256 298 274 265 180 217 195 220 261 272 250 264 194 131 185 238 199 99 158 152 154 169
311 299 323 157 179 184 221 238 283 284 292 346 344 333 348 257 197 219 192 195 195 210 207 221 138 273 348 259 173 231 248 249 190 149 209 204 223 207 176 193 191 223 167 162 169
298 256 142 153 161 210 239 260 253 285 296 270 307 316 305 304 268 202 215 202 191 203 197 194 179 234 246 271 186 185 207 193 130 281 116 125 256 212 170 187 193 168 165 167 167
272 273 256 253 220 238 268 261 258 270 279 289 282 280 295 300 319 210 206 240 192 199 176 189 228 263 323 324 198 189 219 196 121 93 200 153 269 73 112 145 149 155 160 163 153
304 295 231 248 250 276 293 296 270 262 268 255 287 309 311 310 293 305 338 243 236 182 182 171 169 160 217 223 26 227 234 214 143 128 246 208 155 211 171 147 156 147 148 151 155
256 263 17 298 249 281 245 280 292 289 267 260 301 293 287 309 326 305 298 304 163 136 105 129 176 185 240 279 276 267 285 222 198 212 209 207 158 194 169 151 150 149 149 153 156
292 346 334 294 298 300 251 251 263 278 269 225 234 267 269 263 281 332 10 12 329 341 161 175 192 186 285 287 274 281 246 96 305 244 98 114 72 133 141 134 133 150 152 151 157
276 296 327 292 275 302 301 231 262 262 291 252 208 245 262 14 359 321 320 300 278 271 223 142 128 121 244 276 286 289 344 334 227 192 163 134 171 131 138 139 148 151 155 157 162
Wind_Speed_850mb
40 43 42 39 40 39 39 42 44 44 45 48 51 50 39 28 23 23 27 18 24 9 16 13 20 16 3 25 41 44 7 6 13 17 25 52 30 57 48 53 30 35 64 56 51
39 43 46 41 42 41 39 43 44 45 44 46 50 46 36 31 29 31 15 10 19 20 21 20 15 10 20 14 8 6 9 18 3 33 36 51 52 39 27 44 51 59 56 54 47
38 42 45 45 44 42 40 41 43 44 44 45 49 41 33 31 20 14 19 11 23 19 19 13 16 27 36 29 17 6 13 21 29 49 56 36 43 28 48 23 49 54 52 55 54
35 40 45 45 46 42 41 40 42 42 42 42 46 35 31 23 4 8 15 21 21 22 29 25 33 41 11 5 16 9 15 34 36 45 61 29 34 18 36 40 53 49 51 58 56
35 36 41 46 45 44 40 40 40 40 41 42 42 30 30 12 23 20 16 24 23 30 35 23 26 36 13 5 4 13 12 32 43 47 50 54 39 25 41 48 47 47 39 47 57
36 39 39 43 43 44 41 40 37 36 36 38 37 27 22 14 8 8 12 24 26 39 35 26 24 30 22 22 8 33 40 26 45 31 57 43 36 29 41 48 46 43 40 54 58
37 40 41 41 43 41 40 40 36 35 33 34 28 24 24 31 15 9 14 22 30 44 23 20 26 13 25 19 12 17 12 24 31 31 15 41 16 20 47 46 44 44 53 51 45
38 40 42 42 39 39 39 39 33 32 30 29 21 19 21 8 23 16 11 17 28 39 26 23 29 20 12 23 14 12 15 11 12 23 17 27 14 29 50 50 48 44 52 48 40
38 39 41 44 40 37 38 33 29 26 25 22 14 14 22 16 25 28 21 19 19 25 28 25 20 10 17 8 2 19 11 12 19 9 16 6 7 29 52 53 51 49 55 52 52
41 42 40 39 38 37 32 28 18 21 19 17 17 12 27 34 26 35 25 28 26 23 25 12 1 2 9 2 12 10 10 10 11 21 10 30 32 14 53 54 56 59 60 59 63
41 43 41 36 31 29 23 28 14 4 19 23 14 22 28 21 31 31 29 33 30 27 10 21 5 13 23 17 14 22 20 20 15 27 3 24 40 23 57 47 50 58 65 66 68
41 40 40 34 26 14 18 18 14 22 26 41 51 56 57 16 22 28 36 35 25 12 19 8 21 18 19 18 19 16 13 19 30 26 24 42 41 28 52 65 61 63 66 68 74
37 37 37 29 20 8 16 13 20 31 12 36 47 51 50 30 29 37 44 44 19 18 19 20 13 25 25 25 26 19 16 21 24 36 25 11 31 34 47 39 37 50 61 85 91
34 33 32 29 9 13 2 11 21 27 7 15 24 48 52 30 15 43 49 42 14 28 20 18 33 30 28 28 26 26 18 25 24 13 19 38 13 6 39 33 27 44 67 75 74
33 31 25 24 26 17 10 17 29 12 7 15 34 24 48 43 19 41 58 56 26 22 14 16 21 29 32 39 36 31 23 8 10 11 7 21 10 13 36 20 26 39 65 75 75
34 31 29 14 31 11 20 27 18 1 13 10 24 21 30 46 52 24 58 57 39 21 15 27 45 23 30 12 4 11 13 14 12 3 5 10 11 8 3 14 10 23 63 68 71
35 31 33 28 25 9 12 23 2 9 17 28 29 27 36 21 34 26 30 29 22 10 13 16 26 16 11 6 9 7 10 8 11 6 11 18 9 14 21 39 31 41 38 70 74
38 36 34 34 22 11 8 5 10 19 28 9 28 32 30 28 31 31 30 22 24 21 7 12 16 15 10 13 20 16 13 9 13 8 11 4 13 8 13 52 67 54 54 68 68
36 35 41 23 17 13 4 5 12 15 13 33 29 26 27 30 18 27 27 31 31 32 16 9 18 20 16 9 18 13 18 18 8 16 4 11 11 11 20 25 48 68 55 62 64
31 31 37 14 23 29 10 12 13 24 41 26 7 21 27 31 29 18 28 32 28 38 31 15 9 15 21 26 21 20 9 5 4 10 13 9 9 10 8 9 24 29 57 61 62
23 11 13 30 21 31 12 12 20 51 50 16 25 13 9 12 32 24 24 23 38 34 35 18 11 31 7 8 16 6 15 10 4 10 11 1 4 14 21 9 9 34 56 68 68
7 6 14 29 10 14 17 13 17 41 64 12 10 13 14 30 9 34 22 26 63 49 33 20 13 13 23 22 27 19 18 13 8 14 5 7 12 12 19 53 44 59 74 72 64
8 21 15 14 8 15 21 34 45 43 44 11 13 15 18 16 10 17 19 30 37 41 25 19 8 6 19 14 10 17 15 9 8 6 10 10 8 2 21 40 63 63 72 69 77
8 6 14 18 28 13 15 24 31 49 42 37 15 24 15 17 14 11 10 14 31 30 40 44 12 14 16 15 5 4 11 14 15 7 8 10 13 9 12 32 45 56 75 78 73
8 5 4 3 11 17 16 22 37 34 36 22 17 18 17 11 16 14 15 22 13 19 8 16 13 14 18 16 23 19 23 27 16 17 13 12 18 16 22 20 46 67 70 71 66
9 10 19 14 29 20 17 22 33 41 29 12 15 20 20 17 9 7 17 14 9 11 18 10 11 12 11 13 21 27 26 7 7 17 12 23 14 15 34 38 49 60 59 61 67
12 20 12 13 11 11 9 25 28 34 39 39 26 22 23 16 32 35 19 34 21 8 8 14 12 8 10 13 20 18 14 16 11 6 6 10 16 15 17 26 49 56 65 66 66
Wind_Direction_850mb
302 304 308 313 315 317 319 321 324 326 328 333 332 333 329 325 304 276 249 219 204 258 229 189 185 173 249 259 253 264 208 312 236 141 120 105 97 79 86 82 109 112 138 144 149
299 302 305 310 311 315 317 318 322 325 327 331 330 331 329 328 307 270 204 207 218 244 220 186 197 205 238 261 248 139 124 182 338 123 126 128 111 110 102 96 99 114 138 148 148
296 300 303 308 309 314 315 316 319 321 326 329 328 329 330 328 315 273 211 194 230 232 202 195 237 225 232 252 208 231 91 17 312 126 121 121 117 125 124 135 141 142 154 154 158
294 298 301 306 308 311 312 313 316 318 322 326 326 326 327 319 330 293 216 213 228 218 191 216 237 248 239 253 198 104 175 200 124 122 118 123 136 98 144 156 150 154 167 167 163
293 296 299 303 307 310 311 309 312 315 319 322 322 321 328 306 266 279 230 219 200 198 190 208 249 250 238 306 200 103 277 194 115 103 107 121 115 119 121 138 148 163 170 161 160
295 297 300 302 306 309 310 307 308 311 313 317 315 310 316 253 245 266 228 207 197 192 187 221 235 254 302 284 211 212 153 142 115 112 108 108 122 127 139 143 150 158 159 140 133
298 297 300 305 307 309 309 303 304 305 308 309 305 300 292 254 241 283 231 212 201 190 188 217 253 286 321 333 180 155 119 77 38 23 118 130 131 146 148 152 161 175 146 139 136
307 303 300 302 309 308 306 304 302 299 302 300 294 292 273 284 216 245 231 187 187 193 219 241 277 273 274 277 280 81 57 21 319 45 355 2 192 154 161 163 176 170 149 146 144
310 307 306 305 308 312 309 308 300 289 296 289 284 277 270 196 201 224 200 202 187 215 231 270 224 250 295 259 336 13 106 50 339 316 19 78 239 176 173 174 178 172 158 158 157
312 312 309 308 309 315 319 316 302 289 275 276 226 290 248 226 224 206 198 201 208 228 245 219 333 238 288 110 189 152 126 66 315 266 306 274 250 219 185 185 180 178 167 166 159
309 312 313 308 307 317 340 10 359 41 328 251 212 248 294 204 206 197 192 202 204 227 206 199 190 204 241 239 248 168 130 173 184 255 331 242 246 245 195 199 185 180 175 170 165
308 310 314 310 305 306 320 350 357 325 295 279 260 262 265 201 162 190 187 197 191 209 215 252 221 232 235 253 255 264 260 216 170 200 189 259 244 221 194 204 190 183 180 170 159
310 312 315 309 297 296 314 325 339 329 287 285 249 239 243 182 200 203 194 207 183 209 224 226 213 228 243 252 260 247 231 262 179 207 209 320 258 208 199 198 209 193 184 168 167
310 313 319 313 260 266 3 14 334 331 298 260 203 227 226 193 224 219 196 202 203 203 220 232 248 219 227 240 254 269 234 234 260 155 205 207 260 253 169 179 203 228 168 162 162
305 309 312 322 284 285 353 360 329 311 310 176 189 187 197 179 176 215 194 203 229 197 185 237 228 236 232 229 234 253 260 235 282 268 28 352 51 336 141 191 191 206 164 162 167
300 304 304 284 279 312 335 331 312 223 248 195 151 161 185 191 220 207 177 202 230 253 251 226 225 234 234 219 202 338 336 348 305 199 326 146 120 252 246 200 212 192 174 161 153
291 294 291 285 260 308 346 340 171 231 286 145 166 166 191 183 209 210 176 196 216 202 252 282 244 256 148 69 7 356 17 336 305 339 227 188 96 45 346 345 326 285 256 155 153
286 288 283 269 265 249 357 313 239 253 246 317 163 175 201 186 214 221 174 191 223 234 218 225 262 239 161 173 194 214 192 201 246 209 240 234 162 178 56 324 300 268 233 151 153
290 290 285 257 213 152 256 255 222 222 312 306 183 173 193 203 201 207 179 198 204 218 206 215 234 257 180 171 163 252 237 212 254 279 327 121 88 200 232 245 279 174 166 141 155
304 304 280 204 175 213 222 242 264 315 310 332 193 167 184 200 200 213 186 196 207 207 213 256 298 274 265 180 217 195 220 261 272 250 264 194 131 185 238 199 99 158 152 154 169
311 299 323 157 179 184 221 238 283 284 292 346 344 333 348 257 197 219 192 195 195 210 207 221 138 273 348 259 173 231 248 249 190 149 209 204 223 207 176 193 191 223 167 162 169
298 256 142 153 161 210 239 260 253 285 296 270 307 316 305 304 268 202 215 202 191 203 197 194 179 234 246 271 186 185 207 193 130 281 116 125 256 212 170 187 193 168 165 167 167
272 273 256 253 220 238 268 261 258 270 279 289 282 280 295 300 319 210 206 240 192 199 176 189 228 263 323 324 198 189 219 196 121 93 200 153 269 73 112 145 149 155 160 163 153
304 295 231 248 250 276 293 296 270 262 268 255 287 309 311 310 293 305 338 243 236 182 182 171 169 160 217 223 26 227 234 214 143 128 246 208 155 211 171 147 156 147 148 151 155
256 263 17 298 249 281 245 280 292 289 267 260 301 293 287 309 326 305 298 304 163 136 105 129 176 185 240 279 276 267 285 222 198 212 209 207 158 194 169 151 150 149 149 153 156
292 346 334 294 298 300 251 251 263 278 269 225 234 267 269 263 281 332 10 12 329 341 161 175 192 186 285 287 274 281 246 96 305 244 98 114 72 133 141 134 133 150 152 151 157
276 296 327 292 275 302 301 231 262 262 291 252 208 245 262 14 359 321 320 300 278 271 223 142 128 121 244 276 286 289 344 334 227 192 163 134 171 131 138 139 148 151 155 157 162